TimeHST,TemperatureF,Dew PointF,Humidity,Sea Level PressureIn,VisibilityMPH,Wind Direction,Wind SpeedMPH,Gust SpeedMPH,PrecipitationIn,Events,Conditions,WindDirDegrees,DateUTC
12:55 AM,64.9,62.4,92,29.91,10.0,NW,3.5,-,N/A,,Clear,320,2012-10-06 10:55:00
1:55 AM,64.4,62.4,93,29.89,10.0,WNW,3.5,-,N/A,,Clear,290,2012-10-06 11:55:00
2:55 AM,64.4,62.2,93,29.87,10.0,West,3.5,-,N/A,,Clear,280,2012-10-06 12:55:00
3:55 AM,64.0,62.2,94,29.86,10.0,Calm,Calm,-,N/A,,Clear,0,2012-10-06 13:55:00
4:55 AM,62.6,60.8,94,29.87,10.0,Calm,Calm,-,N/A,,Clear,0,2012-10-06 14:55:00
5:55 AM,62.6,61.0,94,29.88,10.0,WNW,3.5,-,N/A,,Clear,300,2012-10-06 15:55:00
6:55 AM,63.1,61.3,94,29.89,10.0,Calm,Calm,-,N/A,,Clear,0,2012-10-06 16:55:00
7:53 AM,69.8,68.0,94,29.90,10.0,Calm,Calm,-,N/A,,Partly Cloudy,0,2012-10-06 17:53:00
7:55 AM,70.2,67.1,90,29.90,10.0,South,3.5,-,N/A,,Partly Cloudy,180,2012-10-06 17:55:00
8:13 AM,73.4,69.8,88,29.91,10.0,SE,3.5,-,N/A,,Mostly Cloudy,140,2012-10-06 18:13:00
8:16 AM,73.4,69.8,88,29.90,10.0,SE,5.8,-,N/A,,Mostly Cloudy,130,2012-10-06 18:16:00
8:25 AM,73.4,69.8,88,29.91,10.0,SE,5.8,-,N/A,,Scattered Clouds,140,2012-10-06 18:25:00
8:31 AM,75.2,69.8,83,29.91,10.0,SE,5.8,-,N/A,,Scattered Clouds,130,2012-10-06 18:31:00
8:36 AM,75.2,69.8,83,29.91,10.0,Variable,5.8,-,N/A,,Mostly Cloudy,0,2012-10-06 18:36:00
8:45 AM,75.2,69.8,83,29.91,10.0,SSE,8.1,-,N/A,,Mostly Cloudy,160,2012-10-06 18:45:00
8:47 AM,75.2,69.8,83,29.91,10.0,SSE,4.6,-,N/A,,Scattered Clouds,150,2012-10-06 18:47:00
8:55 AM,75.0,69.3,82,29.91,10.0,SSE,5.8,-,N/A,,Scattered Clouds,150,2012-10-06 18:55:00
9:17 AM,77.0,69.8,78,29.91,10.0,SE,8.1,-,N/A,,Mostly Cloudy,130,2012-10-06 19:17:00
9:49 AM,77.0,68.0,74,29.91,10.0,Variable,5.8,-,N/A,,Mostly Cloudy,0,2012-10-06 19:49:00
9:54 AM,77.0,68.0,74,29.91,10.0,ESE,8.1,-,N/A,,Mostly Cloudy,120,2012-10-06 19:54:00
9:55 AM,77.2,68.0,73,29.91,10.0,SE,5.8,-,N/A,,Mostly Cloudy,130,2012-10-06 19:55:00
9:58 AM,77.0,68.0,74,29.91,10.0,Variable,5.8,-,N/A,,Mostly Cloudy,0,2012-10-06 19:58:00
10:08 AM,77.0,68.0,74,29.91,10.0,South,6.9,-,N/A,,Mostly Cloudy,180,2012-10-06 20:08:00
10:20 AM,78.8,68.0,69,29.90,10.0,Variable,6.9,-,N/A,,Mostly Cloudy,0,2012-10-06 20:20:00
10:44 AM,78.8,68.0,69,29.89,10.0,SSE,9.2,-,N/A,,Scattered Clouds,150,2012-10-06 20:44:00
10:55 AM,79.5,68.4,69,29.89,10.0,SE,9.2,-,N/A,,Partly Cloudy,130,2012-10-06 20:55:00
11:40 AM,78.8,68.0,69,29.89,10.0,SSE,8.1,-,N/A,,Overcast,150,2012-10-06 21:40:00
11:42 AM,78.8,68.0,69,29.89,10.0,SSE,9.2,-,N/A,,Overcast,160,2012-10-06 21:42:00
11:55 AM,78.4,67.5,69,29.89,10.0,SE,8.1,-,N/A,,Mostly Cloudy,130,2012-10-06 21:55:00
12:14 PM,78.8,68.0,69,29.88,10.0,Variable,5.8,-,N/A,,Mostly Cloudy,0,2012-10-06 22:14:00
12:43 PM,78.8,68.0,69,29.87,10.0,SSE,9.2,-,N/A,,Mostly Cloudy,150,2012-10-06 22:43:00
12:55 PM,79.0,67.8,69,29.87,10.0,South,10.4,-,N/A,,Mostly Cloudy,180,2012-10-06 22:55:00
1:34 PM,78.8,68.0,69,29.85,10.0,Variable,6.9,-,N/A,,Overcast,0,2012-10-06 23:34:00
1:43 PM,80.6,66.2,61,29.85,10.0,SSE,8.1,21.9,N/A,,Overcast,160,2012-10-06 23:43:00
1:45 PM,80.6,66.2,61,29.85,10.0,SSE,11.5,21.9,N/A,,Overcast,150,2012-10-06 23:45:00
1:54 PM,80.6,66.2,61,29.85,10.0,SSE,6.9,17.3,N/A,,Mostly Cloudy,160,2012-10-06 23:54:00
1:55 PM,80.6,66.7,63,29.84,10.0,South,6.9,17.3,N/A,,Mostly Cloudy,170,2012-10-06 23:55:00
1:56 PM,80.6,66.2,61,29.84,10.0,SSE,5.8,17.3,N/A,,Mostly Cloudy,160,2012-10-06 23:56:00
2:01 PM,80.6,66.2,61,29.84,10.0,South,9.2,-,N/A,,Mostly Cloudy,170,2012-10-07 00:01:00
2:47 PM,78.8,66.2,65,29.83,10.0,SSE,11.5,18.4,N/A,,Overcast,150,2012-10-07 00:47:00
2:52 PM,78.8,66.2,65,29.83,10.0,SSE,9.2,18.4,N/A,,Overcast,150,2012-10-07 00:52:00
2:55 PM,79.0,66.9,66,29.83,10.0,SSE,6.9,18.4,N/A,,Overcast,160,2012-10-07 00:55:00
3:26 PM,80.6,66.2,61,29.82,10.0,South,5.8,-,N/A,,Mostly Cloudy,190,2012-10-07 01:26:00
3:55 PM,81.7,66.9,61,29.82,10.0,Variable,5.8,-,N/A,,Overcast,0,2012-10-07 01:55:00
4:55 PM,77.5,68.2,73,29.83,10.0,SE,8.1,-,N/A,,Overcast,130,2012-10-07 02:55:00
5:02 PM,77.0,68.0,74,29.83,10.0,SE,5.8,-,N/A,,Overcast,140,2012-10-07 03:02:00
5:12 PM,77.0,68.0,74,29.83,10.0,Variable,6.9,-,N/A,,Overcast,0,2012-10-07 03:12:00
5:20 PM,77.0,68.0,74,29.83,10.0,SSE,8.1,-,N/A,,Overcast,160,2012-10-07 03:20:00
5:55 PM,76.8,67.3,72,29.84,10.0,SE,5.8,-,N/A,,Mostly Cloudy,140,2012-10-07 03:55:00
6:55 PM,74.3,66.4,76,29.86,10.0,Calm,Calm,-,N/A,,Partly Cloudy,0,2012-10-07 04:55:00
7:55 PM,72.7,66.0,80,29.88,10.0,Calm,Calm,-,N/A,,Clear,0,2012-10-07 05:55:00
8:55 PM,72.3,66.7,83,29.89,10.0,Calm,Calm,-,N/A,,Clear,0,2012-10-07 06:55:00
9:50 PM,69.8,66.2,88,29.90,10.0,SSE,3.5,-,N/A,,Mostly Cloudy,150,2012-10-07 07:50:00
9:55 PM,70.7,66.7,87,29.90,10.0,Calm,Calm,-,N/A,,Mostly Cloudy,0,2012-10-07 07:55:00
10:12 PM,71.6,68.0,88,29.89,10.0,SE,4.6,-,N/A,,Scattered Clouds,130,2012-10-07 08:12:00
10:55 PM,69.3,66.0,89,29.88,10.0,Calm,Calm,-,N/A,,Clear,0,2012-10-07 08:55:00
11:55 PM,69.8,67.3,92,29.87,10.0,Calm,Calm,-,N/A,,Partly Cloudy,0,2012-10-07 09:55:00